Погода в Илеке

Россия / Челябинская область     55°13′43″N   58°00′04″E
темп.,
°C
ветер,
м/с
пор.,
м/с
влажн.,
%
обл.,
%
осадки,
мм/ч
давл.,
гПа
погр.,
м
18 мая, вт
вт1823:00+17юз413626 0.2 1017249
02:00+16юз35616 0.0 101676
05:00+14юз2272100 0.3 101711
08:00+17зюз24715 1.8 1017227
11:00+23сз35535 1.8 10161121
14:00+25ссз56360 0.0 10162235
17:00+25ссз55371 0.0 10152364
20:00+19ссв310605 0.0 1017355
19 мая, ср
ср1923:00+15св511760 0.0 1019411
02:00+13всв410820 0.0 1020340
05:00+11всв410910 0.0 1021316
08:00+14в58680 0.0 1022730
11:00+17всв67510 0.0 1022962
14:00+20всв67415 0.0 10221339
17:00+21всв553758 0.0 10211423
20:00+17всв3759100 0.0 1022141
20 мая, чт
чт2023:00+13вюв22616 0.0 102330
02:00+11вюв22695 0.0 102411
05:00+10ююв11754 0.0 102510
08:00+14юв11625 0.0 1025194
11:00+19вюв22465 0.0 1024972
14:00+22всв22375 0.0 10231444
17:00+23ссв22355 0.0 10211136
20:00+19всв22524 0.0 102114
21 мая, пт
пт2123:00+15ююв22540 0.0 102214
02:00+13ю22565 0.0 102211
05:00+12ююв22580 0.0 102210
08:00+17ююв23510 0.0 1023180
11:00+22ю34360 0.0 10221381
14:00+24ю24280 0.0 10212337
17:00+25юз35275 0.0 10202789
20:00+21юз224986 0.0 102012
22 мая, сб
сб2223:00+18ююз2256100 0.0 102125
02:00+15ююз226381 0.0 102119
05:00+13юз337579 0.3 102226
08:00+17юз366960 0.2 1023246
11:00+22зюз585166 0.2 10231603
14:00+24зюз674448 0.0 10222237
17:00+24з674296 0.0 10222107
20:00+20з356273 0.0 1023125